Flag for U.S.A. Weather past 2 weeks in Worcester, Massachusetts, U.S.A.

Now
18 °F

Clear.


Feels Like: 4 °F
Forecast: 7 / 31 °F
Wind: 14 mph from Northwest

Location: Worcester Regional Airport

Current Time: Jan 28, 2015 at 8:21:18 PM

Latest Report: Jan 28, 2015 at 7:54 PM


Visibility: 10 mi

Pressure: 30.15 "Hg

Humidity: 43%

Dew point: -1 °F

Location of WorcesterLocation

Historic Weather in Worcester — Graph

°F

Worcester temperature yesterday

Maximum temperature yesterday: 18 °F (at 11:54 AM)
Minimum temperature yesterday: 9 °F (at 10:54 PM)
Average temperature yesterday: 13 °F

Past Weeks' High & Low Weather Summary

 TemperatureHumidityPressure
High47 °F (Jan 18, 7:54 PM)100% (Jan 18, 11:54 AM)30.64 "Hg (Jan 18, 11:54 AM)
Low3 °F (Jan 17, 4:54 AM)26% (Jan 17, 2:54 PM)29.17 "Hg (Jan 24, 5:01 PM)
Average23 °F69%29.95 "Hg
* Reported Jan 13 6:54 PM — Jan 28 6:54 PM, Worcester, Weather by CustomWeather, © 2014

Note: Actual official high and low records may vary slightly from our data, if they occured in-between our weather recording intervals... More about our weather records

Advertising

Worcester weather history for previous 24 hours

 ConditionsComfort  
Time TempWeatherWind HumidityBarometerVisibility
6:54 PM
Jan 28
19 °FClear.16 mph49%30.12 "Hg10 mi
5:54 PM20 °FClear.17 mph52%30.09 "Hg10 mi
4:54 PM20 °FSunny.12 mph57%30.06 "Hg10 mi
3:54 PM21 °FSunny.13 mph55%30.03 "Hg10 mi
2:54 PM21 °FSunny.15 mph55%30.01 "Hg10 mi
1:54 PM20 °FSunny.15 mph57%29.98 "Hg10 mi
12:54 PM18 °FPassing clouds.18 mph59%29.97 "Hg10 mi
11:54 AM17 °FSunny.14 mph59%29.96 "Hg10 mi
10:54 AM14 °FPassing clouds.10 mph61%29.96 "Hg10 mi
9:54 AM11 °FOvercast.15 mph64%29.95 "Hg10 mi
8:54 AM10 °FMostly cloudy.16 mph64%29.93 "Hg10 mi
7:54 AM9 °FOvercast.18 mph66%29.90 "Hg9 mi
6:54 AM8 °FOvercast.21 mph69%29.86 "Hg10 mi
5:54 AM8 °FOvercast.22 mph69%29.83 "Hg9 mi
4:54 AM7 °FClear.21 mph73%29.79 "Hg7 mi
3:54 AM8 °FPassing clouds.21 mph69%29.75 "Hg10 mi
2:54 AM9 °FClear.20 mph70%29.73 "Hg8 mi
1:54 AM9 °FPassing clouds.21 mph70%29.70 "Hg10 mi
12:54 AM9 °FClear.17 mph73%29.68 "Hg9 mi
11:54 PM
Jan 27
9 °FOvercast.18 mph73%29.68 "Hg10 mi
10:54 PM9 °FOvercast.15 mph73%29.67 "Hg10 mi
9:54 PM10 °FOvercast.15 mph69%29.65 "Hg10 mi
8:54 PM10 °FLight snow. Overcast.21 mph73%29.64 "Hg7 mi
Weather by CustomWeather, © 2014

See weather overviewHow to use our weather pages